Regional Weather Roundup
Issued by NWS Wilmington, NC

Home | Current Version | Previous Version | Text Only | Print | Product List | Glossary On
Versions: 1 2 3 4 5 6 7 8 9 10 11 12 13 14 15 16 17 18 19 20 21 22 23 24 25 26 27
000
ASUS42 KILM 201213
RWRILM
RWRILM
REGIONAL HOURLY WEATHER ROUNDUP
NATIONAL WEATHER SERVICE WILMINGTON NC
800 AM EDT SUN MAY 20 2018

NOTE: "FAIR" INDICATES FEW OR NO CLOUDS BELOW 12,000 FEET WITH NO
SIGNIFICANT WEATHER AND/OR OBSTRUCTIONS TO VISIBILITY.

...............WFO WILMINGTON COUNTY WARNING AREA...............

......COASTAL NC AND SC COUNTIES......

CITY           SKY/WX    TMP DP  RH WIND       PRES   REMARKS
WILMINGTON     LGT RAIN  71  68  90 SW7       30.16R
N MYRTLE BEACH CLOUDY    72  71  97 S8        30.16R
MYRTLE BEACH   CLOUDY    72  71  97 S7        30.17S

......INLAND NC AND SC COUNTIES.......

CITY           SKY/WX    TMP DP  RH WIND       PRES   REMARKS
LUMBERTON      CLOUDY    71  70  96 S6        30.15R
ELIZABETHTOWN  CLOUDY    71  69  96 S7        30.16S
WHITEVILLE     CLOUDY    71  70  96 S5        30.16R
FLORENCE       CLOUDY    72  70  93 S6        30.15R
DARLINGTON       N/A     71  70  96 S7        30.15S
KINGSTREE      FAIR      72  70  94 S5        30.15S
HARTSVILLE     CLOUDY    70  70 100 CALM      30.15S
BENNETTSVILLE  CLOUDY    73  73 100 CALM      30.15R
CONWAY         FOG       70  70 100 CALM      30.17R VSB 3/4
GEORGETOWN     FAIR      72  70  94 S3        30.17R
MARION         CLOUDY    70  70 100 S5        30.15S FOG

....................REST OF NORTH CAROLINA......................

.........EASTERN NC.........

CITY           SKY/WX    TMP DP  RH WIND       PRES   REMARKS
CAPE HATTERAS  FAIR      74  71  91 S9        30.18S
JACKSONVILLE   CLOUDY    71  70  96 S6        30.17R
MOREHEAD CITY  FAIR      75  72  90 S12       30.17S
KENANSVILLE    FAIR      72  70  94 SW3       30.16S
NEW BERN       PTSUNNY   74  72  93 S7        30.17R FOG
ELIZABETH CITY CLOUDY    75  73  93 S10       30.14S

.........CENTRAL NC.........

CITY           SKY/WX    TMP DP  RH WIND       PRES   REMARKS
RALEIGH DURHAM PTSUNNY   71  70  96 SW7       30.15R
ROCKY MOUNT    FAIR      72  69  90 S9        30.15R
ROANOKE RAPIDS NOT AVBL
FAYETTEVILLE   CLOUDY    71  68  90 S6        30.15R
HOFFMAN        PTSUNNY   72  68  88 S5        30.15R

.........WESTERN NC.........

CITY           SKY/WX    TMP DP  RH WIND       PRES   REMARKS
CHARLOTTE      CLOUDY    72  71  97 S8        30.15R
GREENSBORO     PTSUNNY   71  69  93 SW7       30.13R
HICKORY        NOT AVBL
BOONE          NOT AVBL
ASHEVILLE      NOT AVBL

.....................REST OF SOUTH CAROLINA.....................

.........EASTERN SC.........

CITY           SKY/WX    TMP DP  RH WIND       PRES   REMARKS
CHARLESTON     PTSUNNY   75  72  90 S6        30.15R
BEAUFORT MCAS  FAIR      76  73  91 CALM      30.14R
HILTON HEAD    CLOUDY    73  72  94 S6        30.14S

.........CENTRAL SC.........

CITY           SKY/WX    TMP DP  RH WIND       PRES   REMARKS
COLUMBIA       CLOUDY    73  72  96 CALM      30.13R
ORANGEBURG     PTSUNNY   71  69  93 S5        30.15R
SUMTER SHAW    CLOUDY    73  70  91 S3        30.13R

.........WESTERN SC.........

CITY           SKY/WX    TMP DP  RH WIND       PRES   REMARKS
GREENVILLE     NOT AVBL
ROCK HILL      CLOUDY    71  70  96 SW6       30.16R
ANDERSON       CLOUDY    69  68  96 CALM      30.15R FOG
CLEMSON        NOT AVBL
GREENWOOD      CLOUDY    69  69 100 S5        30.15R FOG


...................COASTAL AND OFFSHORE REPORTS..................

................LOCAL PIERS AND NC RESERVE................


STATION/POSITION TIME  SKY/WX   TEMP    WIND        PRES    VSBY
                                AIR SEA DIR/SP/G
                 (UTC)          (F)     (DEG/KT/KT) (MB)    (MI)
JOHNY MRCER PIER 1142            71 71  210/ 12/ 13 1021.3R
NC RESRV MASNBRO 1045            71     250/  5     1022.0
OCEAN CREST PIER NOT AVBL
SPRINGMAID  PIER 1142                               1024.6R


................COASTAL AND OFFSHORE BUOYS................


STATION/POSITION TIME  SKY/WX   TEMP    WIND        PRES    VSBY
                                AIR SEA DIR/SP/G
                 (UTC)          (F)     (DEG/KT/KT) (MB)    (MI)
DIMNDSHOAL 41025 1200            78 75  200/ 17/ 23 1022.4
CAPE LOOKOUT     1200                   180/ 13/ 15 1022.1R
ONSLOW BAY 41036 NOT AVBL
ONSLOW BAY 41064 1108            76     190/ 12/ 16 1021.7R
ONSLOW BAY 41159 1200               76                N/A
WVE H/P(F/S)=  7/ 8

MASNBO INL 41110 1200               70                N/A
WVE H/P(F/S)=  5/ 7

WILM HARBR 41108 NOT AVBL
27SE WRITB 41037 1108            74 73  190/ 10/ 16 1021.6R
FRYING PAN 41013 1200            73 75  170/ 16/ 19 1022.0
SUNST NRSH 41024 1108            72 76  200/ 12/ 16 1021.0R
CAPRS NRSH 41029 1108            74 75  170/  8/ 12 1021.7R
EDISTO     41004 1150               74   CALM  /  4 1021.6R
WVE H/P(F/S)=  6/ 8 SWL H/P/D(F/S/D)=  7/140/ 8



..........OFFSHORE BUOYS BEYOND 100 NM OFFSHORE...........
.....IN A TRIANGLE---HAT TO BERMUDA TO BAHAMAS TO HAT.....


STATION/POSITION TIME  SKY/WX   TEMP    WIND        PRES    VSBY
                                AIR SEA DIR/SP/G
                 (UTC)          (F)     (DEG/KT/KT) (MB)    (MI)
150E HAT   41001 NOT AVBL
W BERMUDA  41048 1200               75  150/  8/ 12 1027.3
ATLANTIC S 41049 1150               78   90/ 14/ 17 1026.4R
E BAHAMAS  41046 1200            78 79   80/ 17/ 23 1022.3
NE BAHAMAS 41047 1200                   120/ 16/ 17 1024.5
120E CANVRL41010 1150            78 79  130/ 19/ 23 1021.3R
WVE H/P(F/S)=  6/ 9 SWL H/P/D(F/S/D)=  3/130/ 9


END




USA.gov is the U.S. government's official web portal to all federal, state and local government web resources and services.